Regional Weather Roundup
Issued by NWS

Home | Current Version | Previous Version | Graphics & Text | Print | Product List | Glossary On
Versions: 1 2 3 4 5 6 7 8 9 10 11 12 13 14 15 16 17 18 19 20 21 22 23 24 25 26 27 28 29 30 31 32 33 34 35 36 37 38 39 40 41 42 43 44 45 46 47 48 49 50
000
ASUS43 KBIS 302101
RWRND

NORTH DAKOTA REGIONAL WEATHER ROUNDUP
NATIONAL WEATHER SERVICE BISMARCK ND
300 PM CST FRI JAN 30 2015

NOTE: "FAIR" INDICATES FEW OR NO CLOUDS BELOW 12,000 FEET WITH NO
SIGNIFICANT WEATHER AND/OR OBSTRUCTIONS TO VISIBILITY.


NDZ001>003-009>011-017-302200-
NORTHWEST NORTH DAKOTA

CITY           SKY/WX    TMP DP  RH WIND       PRES   REMARKS
WILLISTON      SUNNY     40  26  57 NW9       30.18F
MINOT          CLOUDY    31  25  78 NW21G26   30.14R WCI  18
MINOT AFB      CLOUDY    29  29  99 NW21      30.14R WCI  16
$$

NDZ018>021-031>035-040>046-302200-
SOUTHWEST NORTH DAKOTA

CITY           SKY/WX    TMP DP  RH WIND       PRES   REMARKS
BISMARCK       SUNNY     47  28  47 NW13      30.12F
DICKINSON      SUNNY     46  27  47 NW15      30.12F
GARRISON         N/A     41  31  67 NW16      30.12S
HETTINGER ARPT SUNNY     49  25  39 NW14G22   30.14F
$$

NDZ004>008-012>016-024-026-027-054-302200-
NORTHEAST NORTH DAKOTA

CITY           SKY/WX    TMP DP  RH WIND       PRES   REMARKS
GRAND FORKS    MOSUNNY   32  21  64 S10       30.12F
GRND FRKS AFB  SUNNY     35  22  59 W9        30.11F
DEVILS LAKE    MOSUNNY   34  25  69 NW14      30.08S
$$

NDZ022-023-025-028>030-036>039-047>053-302200-
SOUTHEAST NORTH DAKOTA

CITY           SKY/WX    TMP DP  RH WIND       PRES   REMARKS
FARGO          MOSUNNY   32  22  66 S16       30.15F
JAMESTOWN      SUNNY     37  25  61 W10       30.09S
$$




USA.gov is the U.S. government's official web portal to all federal, state and local government web resources and services.